• Join FlightAware (Why Join?)
  • Login
  • US Flag 
05:06PM EDT


 

Airport Tracker/Info


-or-


 

Live Flight TrackerFlight Track Log ✈ SWA2339 ✈ 28-Apr-2013 ✈ KBOS - KBWI

Flight Track Log - Related Links

Times and Time Zones

All times are in EDT time to prevent confusion due to time zone crossing. See the SWA2339 flight status page for this flight to view local times or setup timezone preferences in your user account.

Time Position Orientation Groundspeed Altitude Reporting Facility
EDT Latitude Longitude Course Direction KTS MPH feet Rate Location/Type
06:27AM 42.3667 -71.0000 124° Southeast 225 259 600  Level KA90
06:28AM 42.3333 -70.9333 124° Southeast 201 231 3,100 3,000 Climbing KA90
06:29AM 42.3167 -70.8667 109° East 260 299 6,400 3,960 Climbing KA90
06:30AM 42.3167 -70.7500 90° East 288 331 11,100 3,300 Climbing KA90
06:31AM 42.2289 -70.7242 168° South 366 421 13,700 2,700 Climbing Boston Center
06:32AM 42.1722 -70.8294 234° Southwest 308 354 16,800 3,000 Climbing Boston Center
06:33AM 42.1575 -70.9669 262° West 312 359 19,800 3,000 Climbing Boston Center
06:34AM 42.1467 -71.1100 264° West 353 406 22,900 1,980 Climbing Boston Center
06:35AM 42.1339 -71.2697 264° West 382 440 23,800 1,800 Climbing Boston Center
06:36AM 42.1208 -71.4186 263° West 402 463 26,500 2,280 Climbing Boston Center
06:37AM 42.1114 -71.5389 264° West 408 470 28,400 2,700 Climbing Boston Center
06:38AM 42.0875 -71.7017 259° West 408 470 32,000 2,760 Climbing Boston Center
06:39AM 42.0694 -71.8417 260° West 408 470 34,000 1,020 Climbing Boston Center
06:40AM 42.0494 -71.9872 260° West 408 470 34,100 960 Climbing Boston Center
06:41AM 42.0247 -72.1356 257° West 408 470 36,000 1,980 Climbing Boston Center
06:42AM 42.0022 -72.2864 259° West 408 470 38,100 1,800 Climbing Boston Center
06:43AM 41.9731 -72.4289 255° West 408 470 39,700 720 Climbing Boston Center
06:44AM 41.9022 -72.5544 233° Southwest 408 470 39,600 -540 Descending Boston Center
06:45AM 41.8333 -72.6742 232° Southwest 414 476 38,700 -960 Descending Boston Center
06:46AM 41.7517 -72.8103 231° Southwest 420 483 37,700 -900 Descending Boston Center
06:47AM 41.6783 -72.9292 230° Southwest 425 489 37,000 -540 Descending Boston Center
06:48AM 41.6047 -73.0508 231° Southwest 425 489 36,700 -660 Descending Boston Center
06:49AM 41.5311 -73.1750 232° Southwest 425 489 35,700 -960 Descending Boston Center
06:50AM 41.4678 -73.2794 231° Southwest 419 482 34,800 -900 Descending Boston Center
06:51AM 41.3939 -73.4031 231° Southwest 424 488 33,900 -1,020 Descending Boston Center
06:53AM 41.2172 -73.6922 231° Southwest 441 507 31,600 -1,020 Descending New York Center
06:54AM 41.1453 -73.8186 233° Southwest 441 507 30,600 -840 Descending New York Center
06:55AM 41.0689 -73.9444 231° Southwest 441 507 30,000 -300 Descending New York Center
06:56AM 40.9947 -74.0728 233° Southwest 441 507 30,000  Level New York Center
06:57AM 40.9142 -74.1953 229° Southwest 441 507 30,000  Level New York Center
06:58AM 40.8397 -74.3175 231° Southwest 441 507 30,000  Level New York Center
06:59AM 40.7628 -74.4450 231° Southwest 441 507 30,000 -840 Level New York Center
07:00AM 40.6881 -74.5642 230° Southwest 441 507 28,400 -1,020 Descending New York Center
07:01AM 40.6069 -74.6881 229° Southwest 441 507 28,000 -300 Descending New York Center
07:02AM 40.5281 -74.8092 229° Southwest 446 513 27,900  Descending New York Center
07:03AM 40.4514 -74.9167 227° Southwest 433 498 28,000 -900 Climbing New York Center
07:04AM 40.3744 -75.0264 227° Southwest 428 493 26,200 -2,340 Descending New York Center
07:05AM 40.2994 -75.1389 229° Southwest 423 487 23,400 -2,700 Descending New York Center
07:06AM 40.2333 -75.2381 229° Southwest 423 487 20,900 -2,580 Descending New York Center
07:07AM 40.1497 -75.3494 226° Southwest 406 467 18,200 -1,440 Descending New York Center
07:08AM 40.0836 -75.4400 226° Southwest 389 448 18,000 -120 Descending New York Center
07:09AM 40.0086 -75.5433 227° Southwest 372 428 18,000 -120 Level New York Center
07:10AM 39.9467 -75.6286 227° Southwest 367 422 17,800 -660 Descending New York Center
07:11AM 39.8817 -75.7403 233° Southwest 367 422 16,700 -900 Descending New York Center
07:12AM 39.8317 -75.8367 236° Southwest 362 417 16,100 -1,440 Descending New York Center
07:14AM 39.7167 -76.0500 235° Southwest 329 379 12,500 -1,440 Descending Potomac TRACON
07:15AM 39.6667 -76.1333 232° Southwest 306 352 12,000 -540 Descending Potomac TRACON
07:16AM 39.6333 -76.2333 247° West 297 342 11,500 -840 Descending Potomac TRACON
07:17AM 39.5833 -76.3167 232° Southwest 286 329 10,500 -1,200 Descending Potomac TRACON
07:18AM 39.5500 -76.4000 243° Southwest 285 328 9,100 -1,380 Descending Potomac TRACON
07:20AM 39.4300 -76.4863 218° Southwest  Level Estimated
07:20AM 39.4667 -76.5833 218° Southwest 275 316 6,300  Level Potomac TRACON
07:21AM 39.4333 -76.6500 237° Southwest 269 310 5,000 -900 Descending Potomac TRACON
07:22AM 39.4167 -76.7167 252° West 263 303 4,800 -900 Descending Potomac TRACON
07:23AM 39.3500 -76.7833 218° Southwest 246 283 3,200 -1,020 Descending Potomac TRACON
07:24AM 39.2833 -76.8000 191° South 204 235 2,700 -660 Descending Potomac TRACON
07:25AM 39.2500 -76.7833 159° South 170 196 2,100 -660 Descending Potomac TRACON
07:26AM 39.2000 -76.7833 180° South 145 167 1,500 -480 Descending Potomac TRACON
07:27AM 39.1833 -76.7500 123° Southeast 125 144 1,200 -600 Descending Potomac TRACON
07:28AM 39.1833 -76.7167 90° East 139 160 500 -780 Descending Potomac TRACON
07:30AM 39.1667 -76.6667 270° West  Level FlightAware Approximate
07:37AM 39.1754 -76.6683 270° West  Level Estimated
07:38AM 39.1754 -76.6683 270° West  Level Estimated
07:39AM 39.1754 -76.6683 270° West  Level Estimated